User: anonymous   Login
Location: Coche
(10.4506°N, 66.9257°W)
Time: 10:24:21
(UTC+00:00)
Language:

CZ-4 R/B - Orbit

View from above orbital plane
View from above orbital plane
View from above satellite
View from above satellite

Ground track
Ground track

The orbit data is extracted from the following two-line orbital elements,

1 28414U 04035B   22147.88732033  .00001627  00000-0  15535-3 0  9999
2 28414  97.7164 168.6613 0007870 113.1406 247.0641 14.94639173964880
Epoch (UTC): 27 May 2022 21:17:44
Eccentricity: 0.0007870
inclination: 97.7164°
perigee height: 578 km
apogee height: 589 km
right ascension of ascending node: 168.6613°
argument of perigee: 113.1406°
revolutions per day: 14.94639173
mean anomaly at epoch: 247.0641°
orbit number at epoch: 96488

The dashed part of the orbit path shows where the satellite is in the earth's shadow,  

DLR